Retour au catalogue

STARLINK-35415

ActifCommunicationsVLEO
NORAD 65885·PAYLOAD·🇺🇸 United States

Lancé Oct 7, 2025 depuis Cape Canaveral Space Force Station

Loading…

Prochains Passages (prochaines 24 heures)

TLE

FraisSource: CelesTrak SupGP

Époque: Sep 15, 2026, 03:41 UTC

1 65885C 25224D   26258.15395833 -.00068080  00000+0 -20118-2 0  2582
2 65885  53.1577 206.8567 0001493  88.3315 319.4087 15.34418203    15

Suivez STARLINK-35415 en temps réel avec AllMySat

Download on the App Store